Location: Newark
(8.8858°N, 64.2608°W)
Time: 09:30:59
(UTC+00:00)

N. Korean satellite - Visible Passes

Search period start: 30 September 2020 00:00
Search period end: 10 October 2020 00:00
Orbit: 455 x 503 km, 97.2° (Epoch: 29 September)

Date Brightness Start Highest point End Pass type
(mag) Time Alt. Az. Time Alt. Az. Time Alt. Az.
30 Sep 6.4 09:35:48 10° N 09:39:18 77° WNW 09:42:44 10° SSW visible
01 Oct 8.4 09:10:07 10° NNE 09:13:17 34° E 09:16:27 10° SSE visible
02 Oct 10.0 08:45:39 10° ENE 08:47:16 13° E 08:48:52 10° SE visible
04 Oct 6.9 09:25:00 10° NNE 09:28:26 66° E 09:31:50 10° S visible
05 Oct 9.2 08:59:39 10° NE 09:02:24 22° E 09:05:07 10° SSE visible
07 Oct 6.4 09:40:06 10° N 09:43:31 62° W 09:46:53 10° SSW visible
08 Oct 7.9 09:14:14 10° NNE 09:17:29 40° E 09:20:42 10° S visible
09 Oct 9.8 08:49:24 10° ENE 08:51:25 15° E 08:53:26 10° SE visible
